When you browse on this site, cookies collect data to enhance your experience and personalize the content and advertising you see.
Visit our Privacy Policy to learn more. By continuing to use the site, you agree to this use of cookies and data.
  • In Czech Republic
  • List of Countries
  • For 7 days
  • Water Temperature
  • Satellite Maps
  • Weather Map
  • Weather Widgets
  • user-avatar
    Login

    Hourly Weather Ali Bayramli

    Today, 16 January, Wednesday

    Time Temperature Precipitation Wind Pressure Humidity
    00:00 +7°C° 0 mm 4 mps 755 mmHg 45%
    01:00 +6°C° 0 mm 4 mps 754 mmHg 46%
    02:00 +6°C° 0 mm 4 mps 754 mmHg 47%
    03:00 +6°C° 0 mm 4 mps 753 mmHg 48%
    04:00 +6°C° 0 mm 4 mps 753 mmHg 48%
    05:00 +6°C° 0 mm 5 mps 753 mmHg 49%
    06:00 +6°C° 0 mm 5 mps 753 mmHg 49%
    07:00 +7°C° 0 mm 5 mps 752 mmHg 47%
    08:00 +8°C° 0 mm 6 mps 752 mmHg 44%
    09:00 +9°C° 0 mm 6 mps 752 mmHg 40%
    10:00 +11°C° 0 mm 7 mps 752 mmHg 36%
    11:00 +13°C° 0 mm 8 mps 752 mmHg 32%
    12:00 +15°C° 0 mm 9 mps 751 mmHg 28%
    13:00 +16°C° 0 mm 8 mps 751 mmHg 27%
    14:00 +16°C° 0 mm 8 mps 751 mmHg 26%
    15:00 +17°C° 0 mm 8 mps 751 mmHg 26%
    16:00 +15°C° 0 mm 7 mps 751 mmHg 29%
    17:00 +14°C° 0 mm 6 mps 751 mmHg 31%
    18:00 +12°C° 0 mm 5 mps 751 mmHg 34%
    19:00 +12°C° 0 mm 5 mps 751 mmHg 36%
    20:00 +11°C° 0 mm 4 mps 751 mmHg 38%
    21:00 +10°C° 0 mm 4 mps 751 mmHg 40%
    22:00 +9°C° 0 mm 3 mps 751 mmHg 40%
    23:00 +9°C° 0 mm 3 mps 751 mmHg 41%

    Tomorrow, 17 January, Thursday

    Time Temperature Precipitation Wind Pressure Humidity
    00:00 +8°C° 0 mm 2 mps 751 mmHg 42%
    01:00 +8°C° 0.1 mm 3 mps 752 mmHg 49%
    02:00 +8°C° 0.1 mm 3 mps 752 mmHg 55%
    03:00 +8°C° 0.1 mm 3 mps 752 mmHg 61%
    04:00 +7°C° 0.5 mm 5 mps 752 mmHg 66%
    05:00 +5°C° 0.5 mm 6 mps 753 mmHg 70%
    06:00 +5°C° 0.5 mm 7 mps 753 mmHg 75%
    07:00 +5°C° 0.3 mm 8 mps 754 mmHg 70%
    08:00 +5°C° 0.3 mm 8 mps 754 mmHg 65%
    09:00 +5°C° 0.3 mm 9 mps 754 mmHg 61%
    10:00 +5°C° 0.6 mm 8 mps 755 mmHg 63%
    11:00 +5°C° 0.6 mm 8 mps 755 mmHg 65%
    12:00 +5°C° 0.6 mm 7 mps 755 mmHg 67%
    13:00 +5°C° 0.8 mm 6 mps 755 mmHg 69%
    14:00 +5°C° 0.8 mm 5 mps 756 mmHg 72%
    15:00 +5°C° 0.8 mm 4 mps 756 mmHg 75%
    16:00 +5°C° 0.4 mm 4 mps 757 mmHg 76%
    17:00 +5°C° 0.4 mm 4 mps 757 mmHg 76%
    18:00 +4°C° 0.4 mm 4 mps 758 mmHg 77%
    19:00 +4°C° 0.1 mm 3 mps 758 mmHg 79%
    20:00 +4°C° 0.1 mm 3 mps 759 mmHg 80%
    21:00 +4°C° 0.1 mm 3 mps 759 mmHg 82%
    22:00 +4°C° 0.1 mm 3 mps 760 mmHg 81%
    23:00 +5°C° 0.1 mm 2 mps 760 mmHg 80%

    Day after tomorrow, 18 January, Friday

    Time Temperature Precipitation Wind Pressure Humidity
    00:00 +5°C° 0.1 mm 2 mps 761 mmHg 80%
    01:00 +5°C° 0.3 mm 2 mps 761 mmHg 79%
    02:00 +5°C° 0.3 mm 2 mps 762 mmHg 78%
    03:00 +5°C° 0.3 mm 2 mps 762 mmHg 77%
    04:00 +5°C° 0.2 mm 2 mps 762 mmHg 77%
    05:00 +4°C° 0.2 mm 2 mps 763 mmHg 78%
    06:00 +4°C° 0.2 mm 2 mps 763 mmHg 78%
    07:00 +5°C° 0.1 mm 2 mps 763 mmHg 77%
    08:00 +5°C° 0.1 mm 2 mps 764 mmHg 76%
    09:00 +5°C° 0.1 mm 2 mps 764 mmHg 75%
    10:00 +5°C° 0 mm 2 mps 764 mmHg 73%
    11:00 +6°C° 0 mm 2 mps 764 mmHg 70%
    12:00 +6°C° 0 mm 2 mps 764 mmHg 67%
    13:00 +7°C° 0 mm 2 mps 764 mmHg 65%
    14:00 +8°C° 0 mm 1 mps 764 mmHg 62%
    15:00 +8°C° 0 mm 1 mps 764 mmHg 60%
    16:00 +7°C° 0 mm 2 mps 765 mmHg 63%
    17:00 +6°C° 0 mm 2 mps 765 mmHg 67%
    18:00 +5°C° 0 mm 3 mps 765 mmHg 71%
    19:00 +5°C° 0 mm 2 mps 765 mmHg 74%
    20:00 +5°C° 0 mm 2 mps 765 mmHg 77%
    21:00 +6°C° 0 mm 1 mps 765 mmHg 80%
    22:00 +5°C° 0 mm 1 mps 765 mmHg 82%
    23:00 +5°C° 0 mm 1 mps 765 mmHg 84%

    19 January, Saturday

    Time Temperature Precipitation Wind Pressure Humidity
    00:00 +3°C° 0 mm 0 mps 765 mmHg 86%
    01:00 +4°C° 0 mm 1 mps 764 mmHg 84%
    02:00 +4°C° 0 mm 1 mps 764 mmHg 83%
    03:00 +3°C° 0 mm 2 mps 764 mmHg 81%
    04:00 +4°C° 0 mm 1 mps 764 mmHg 81%
    05:00 +4°C° 0 mm 1 mps 764 mmHg 81%
    06:00 +3°C° 0 mm 1 mps 764 mmHg 80%
    07:00 +4°C° 0 mm 1 mps 764 mmHg 77%
    08:00 +5°C° 0 mm 1 mps 764 mmHg 73%
    09:00 +6°C° 0 mm 1 mps 765 mmHg 69%
    10:00 +7°C° 0 mm 1 mps 764 mmHg 64%
    11:00 +7°C° 0 mm 2 mps 764 mmHg 58%
    12:00 +8°C° 0 mm 2 mps 764 mmHg 53%
    13:00 +8°C° 0 mm 2 mps 764 mmHg 50%
    14:00 +9°C° 0 mm 1 mps 764 mmHg 47%
    15:00 +10°C° 0 mm 1 mps 764 mmHg 44%
    16:00 +9°C° 0 mm 1 mps 764 mmHg 49%
    17:00 +8°C° 0 mm 1 mps 765 mmHg 53%
    18:00 +7°C° 0 mm 1 mps 765 mmHg 58%
    19:00 +7°C° 0 mm 1 mps 765 mmHg 60%
    20:00 +6°C° 0 mm 1 mps 766 mmHg 62%
    21:00 +6°C° 0 mm 1 mps 766 mmHg 65%
    22:00 +6°C° 0 mm 1 mps 766 mmHg 68%
    23:00 +5°C° 0 mm 1 mps 766 mmHg 71%

    20 January, Sunday

    Time Temperature Precipitation Wind Pressure Humidity
    00:00 +5°C° 0 mm 1 mps 766 mmHg 74%
    01:00 +3°C° 0 mm 0 mps 766 mmHg 75%
    02:00 +3°C° 0 mm 0 mps 766 mmHg 77%
    03:00 +3°C° 0 mm 0 mps 766 mmHg 79%
    04:00 +3°C° 0 mm 0 mps 766 mmHg 79%
    05:00 +3°C° 0 mm 0 mps 766 mmHg 79%
    06:00 +2°C° 0 mm 0 mps 767 mmHg 80%
    07:00 +5°C° 0 mm 1 mps 767 mmHg 73%
    08:00 +6°C° 0 mm 1 mps 767 mmHg 67%
    09:00 +8°C° 0 mm 1 mps 768 mmHg 61%
    10:00 +9°C° 0 mm 1 mps 768 mmHg 59%
    11:00 +9°C° 0 mm 1 mps 767 mmHg 58%
    12:00 +10°C° 0 mm 1 mps 767 mmHg 57%
    13:00 +11°C° 0 mm 1 mps 767 mmHg 57%
    14:00 +11°C° 0 mm 1 mps 767 mmHg 57%
    15:00 +10°C° 0 mm 2 mps 766 mmHg 57%
    16:00 +10°C° 0 mm 2 mps 767 mmHg 60%
    17:00 +9°C° 0 mm 2 mps 767 mmHg 64%
    18:00 +9°C° 0 mm 2 mps 767 mmHg 67%
    19:00 +8°C° 0 mm 2 mps 767 mmHg 69%
    20:00 +8°C° 0 mm 2 mps 767 mmHg 71%
    21:00 +7°C° 0 mm 2 mps 767 mmHg 72%
    22:00 +8°C° 0 mm 1 mps 767 mmHg 73%
    23:00 +7°C° 0 mm 1 mps 767 mmHg 75%

    21 January, Monday

    Time Temperature Precipitation Wind Pressure Humidity
    00:00 +7°C° 0 mm 1 mps 767 mmHg 76%
    01:00 +7°C° 0 mm 1 mps 767 mmHg 77%
    02:00 +6°C° 0 mm 1 mps 767 mmHg 77%
    03:00 +6°C° 0 mm 1 mps 766 mmHg 78%
    04:00 +5°C° 0 mm 1 mps 766 mmHg 79%
    05:00 +5°C° 0 mm 1 mps 766 mmHg 79%
    06:00 +5°C° 0 mm 1 mps 766 mmHg 80%
    07:00 +6°C° 0 mm 1 mps 766 mmHg 76%
    08:00 +6°C° 0 mm 1 mps 766 mmHg 71%
    09:00 +7°C° 0 mm 1 mps 766 mmHg 67%
    10:00 +8°C° 0 mm 1 mps 765 mmHg 64%
    11:00 +9°C° 0 mm 1 mps 765 mmHg 60%
    12:00 +10°C° 0 mm 1 mps 764 mmHg 57%
    13:00 +10°C° 0 mm 1 mps 764 mmHg 55%
    14:00 +9°C° 0 mm 2 mps 763 mmHg 54%
    15:00 +10°C° 0 mm 2 mps 763 mmHg 52%
    16:00 +9°C° 0 mm 2 mps 763 mmHg 55%
    17:00 +9°C° 0 mm 1 mps 763 mmHg 58%
    18:00 +8°C° 0 mm 1 mps 763 mmHg 61%
    19:00 +8°C° 0 mm 1 mps 763 mmHg 61%
    20:00 +7°C° 0 mm 1 mps 762 mmHg 60%
    21:00 +6°C° 0 mm 2 mps 762 mmHg 59%
    22:00 +5°C° 0 mm 2 mps 762 mmHg 57%
    23:00 +5°C° 0 mm 2 mps 762 mmHg 55%
    Show more